Regional Weather Roundup
Issued by NWS

Home | Current Version | Previous Version | Text Only | Print | Product List | Glossary Off
Versions: 1 2 3 4 5 6 7 8 9 10 11 12 13 14 15 16 17 18 19 20 21 22 23 24 25 26 27 28 29 30 31 32 33 34 35 36 37 38 39 40 41 42 43 44 45 46 47 48 49 50

000
ASUS43 KDTX 271810
RWRMI
MICHIGAN HOURLY REGIONAL WEATHER ROUNDUP
NATIONAL WEATHER SERVICE DETROIT/PONTIAC MI
100 PM EST FRI FEB 27 2015

NOTE: "FAIR" INDICATES FEW OR NO CLOUDS BELOW 12,000 FEET WITH NO
SIGNIFICANT WEATHER AND/OR OBSTRUCTION TO VISIBILITY.

MIZ047>049-052>055-059>063-066>070-074>076-081>083-271900-
SOUTHEAST LOWER MICHIGAN

CITY           SKY/WX    TMP DP  RH WIND       PRES   REMARKS
ADRIAN         SUNNY     11  -4  51 SW7       30.57S
6HR MIN TEMP: -10; 6HR MAX TEMP:  12;

ALMA           CLOUDY    13  -1  54 SW8       30.54S
ANN ARBOR      SUNNY     14  -3  47 W8        30.54F
BAD AXE        SUNNY     10  -2  56 SW12      30.52F WCI  -4
DETROIT CITY   SUNNY     16  -1  47 W5        30.55F
6HR MIN TEMP:  -2; 6HR MAX TEMP:  17;

DETROIT        SUNNY     16  -1  47 NW8       30.57S
6HR MIN TEMP:  -4; 6HR MAX TEMP:  16;

FLINT          SUNNY     15  -4  42 W7        30.54S
6HR MIN TEMP: -16; 6HR MAX TEMP:  15;

GROSSE ILE     SUNNY     16  -2  45 SW8       30.56S
HILLSDALE      SUNNY     14  -6  39 CALM      30.52S
HOWELL         SUNNY     15  -5  41 W5        30.53S
6HR MIN TEMP: -10; 6HR MAX TEMP:  15;


CITY           SKY/WX    TMP DP  RH WIND       PRES   REMARKS
JACKSON        SUNNY     14  -6  40 CALM      30.53S
6HR MIN TEMP: -14; 6HR MAX TEMP:  15;

LAMBERTVILLE   SUNNY     16  -4  41 NW7       30.59S
LANSING        SUNNY     13  -3  49 SW9       30.55S
6HR MIN TEMP: -11; 6HR MAX TEMP:  14;

LAPEER         NOT AVBL
MASON          PTSUNNY   14  -4  44 W3        30.54F
6HR MIN TEMP: -15; 6HR MAX TEMP:  14;

MONROE         SUNNY     12  -2  52 W7        30.57R
MT. CLEMENS    MOSUNNY   12   2  66 SE7       30.53S
6HR MIN TEMP:  -7; 6HR MAX TEMP:  12;

PONTIAC        SUNNY     15  -4  42 N8        30.51S
6HR MIN TEMP: -12; 6HR MAX TEMP:  15; 6HR PCP: TRACE;

PORT HOPE        N/A      9  -5  53 SW12G18   30.51S WCI  -6
6HR MIN TEMP:  -8; 6HR MAX TEMP:  10;

PORT HURON     SUNNY     12  -6  44 W5        30.55S
TRI CITIES     SUNNY     13  -1  54 SW12      30.54S WCI  -1
6HR MIN TEMP:  -9; 6HR MAX TEMP:  13;

YPSILANTI      SUNNY     16  -2  45 SE6       30.56S
6HR MIN TEMP:  -4; 6HR MAX TEMP:  16;

$$
MIZ043>046-050>051-056>058-064>065-071>073-077>080-271900-
SOUTHWEST LOWER MICHIGAN

CITY           SKY/WX    TMP DP  RH WIND       PRES   REMARKS
BATTLE CREEK   SUNNY     15  -4  42 SW9       30.55S
6HR MIN TEMP: -10; 6HR MAX TEMP:  15;

BENTON HARBOR  MOSUNNY   15   5  64 W16       30.59R WCI  -1
6HR MIN TEMP:  -7; 6HR MAX TEMP:  16;

BIG RAPIDS     CLOUDY    15   3  58 W10       30.49S
6HR MIN TEMP: -20; 6HR MAX TEMP:  15;

COLDWATER      SUNNY     14  -8  38 W5        30.55F
6HR MIN TEMP: -15; 6HR MAX TEMP:  14;

HOLLAND        PTSUNNY   18   7  62 SW14      30.57R
6HR MIN TEMP:  -1; 6HR MAX TEMP:  18;

GRAND RAPIDS   MOSUNNY   14  -1  51 SW10      30.55S
6HR MIN TEMP: -10; 6HR MAX TEMP:  15;

KALAMAZOO      PTSUNNY   16  -1  47 SW8       30.56S
6HR MIN TEMP: -11; 6HR MAX TEMP:  16;

MARSHALL       SUNNY     13  -6  43 SW5       30.54S
MUSKEGON       CLOUDY    18   3  52 W10       30.56S
6HR MIN TEMP:  -4; 6HR MAX TEMP:  18; 6HR PCP:  0.03;

$$
MIZ016>042-271900-
NORTHERN LOWER MICHIGAN

CITY           SKY/WX    TMP DP  RH WIND       PRES   REMARKS
ALPENA         MIX PCPN  15  -1  49 SW14      30.45F
6HR MIN TEMP: -19; 6HR MAX TEMP:  15; 6HR PCP: TRACE;

BEAVER ISLAND  SUNNY     11   2  67 W14       30.46F WCI  -5
6HR MIN TEMP: -12; 6HR MAX TEMP:  11;

BELLAIRE       CLOUDY    14   2  59 S8        30.50S
6HR MIN TEMP: -24; 6HR MAX TEMP:  15;

CADILLAC       MOSUNNY   14   1  54 W12       30.42S
CHARLEVOIX     MOSUNNY   11   3  70 W13       30.51S WCI  -4
6HR MIN TEMP: -15; 6HR MAX TEMP:  11;

FRANKFORT      CLOUDY    14   4  64 W12       30.51S
GAYLORD        MOSUNNY   11   1  64 W15       30.40S WCI  -5
6HR MIN TEMP: -21; 6HR MAX TEMP:  11;

GRAYLING       MOSUNNY   13   0  55 W10G18    30.44S
6HR MIN TEMP: -30; 6HR MAX TEMP:  13;

HARBOR SPRINGS SUNNY     12   3  66 SW10G17   30.47S WCI  -1
HOUGHTON LAKE  MOSUNNY   13   1  59 W10       30.45S WCI   0
6HR MIN TEMP: -21; 6HR MAX TEMP:  13; 6HR PCP: TRACE;

MANISTEE       CLOUDY    16   1  53 W14       30.53R
OSCODA         SUNNY     16   0  50 SW9       30.48S
PELLSTON       SUNNY     11   0  61 W10G23    30.46S WCI  -3
6HR MIN TEMP: -27; 6HR MAX TEMP:  12;

TRAVERSE CITY  CLOUDY    15   3  59 W14       30.49R
6HR MIN TEMP: -18; 6HR MAX TEMP:  15; 6HR PCP: TRACE;

$$
MIZ007>008-015-271900-
EASTERN UPPER MICHIGAN

CITY           SKY/WX    TMP DP  RH WIND       PRES   REMARKS
KINROSS        MOSUNNY   16   1  53 W13       30.41S
6HR MIN TEMP:  -8; 6HR MAX TEMP:  16;

MACKINAC ISLAN MOSUNNY    9   2  73 W7        30.45S
6HR MIN TEMP:  -3; 6HR MAX TEMP:   9;

NEWBERRY       SUNNY     10  -1  60 W7        30.41S
6HR MIN TEMP: -10; 6HR MAX TEMP:  11;

S. S. MARIE    SUNNY     13  -2  51 W13       30.41F WCI  -2
6HR MIN TEMP: -12; 6HR MAX TEMP:  13;

$$
MIZ004>006-011>014-085-271900-
CENTRAL UPPER MICHIGAN

CITY           SKY/WX    TMP DP  RH WIND       PRES   REMARKS
MANISTIQUE     SUNNY     14  -3  46 CALM      30.44S
6HR MIN TEMP: -10; 6HR MAX TEMP:  14;

ESCANABA       SUNNY     12  -9  37 W10G16    30.46S WCI  -1
6HR MIN TEMP:  -8; 6HR MAX TEMP:  12;

MENOMINEE      SUNNY     12  -2  52 W9        30.47S
6HR MIN TEMP:  -6; 6HR MAX TEMP:  12;

SAWYER-GWINN   SUNNY     12  -4  48 W3        30.36S
$$
MIZ001>003-009>011-084-271900-
WESTERN UPPER MICHIGAN

CITY           SKY/WX    TMP DP  RH WIND       PRES   REMARKS
IRON MOUNTAIN  SUNNY     13  -5  44 W6        30.39S
6HR MIN TEMP: -15; 6HR MAX TEMP:  13; 6HR PCP: TRACE;

HOUGHTON       SUNNY      9  -3  58 W17       30.37R WCI  -9
6HR MIN TEMP:  -4; 6HR MAX TEMP:  10;

COPPER HARBOR    N/A     14  -1  51 N13G20    30.38R WCI   0
6HR MIN TEMP:   3; 6HR MAX TEMP:  15;

IRONWOOD       SUNNY     10  -6  48 W14       30.38S WCI  -5
6HR MIN TEMP:  -9; 6HR MAX TEMP:  10;

$$

ABBREVIATIONS USED IN REMARKS
   TC - TEMPERATURE IN CELSIUS
  WCI - WIND CHILL INDEX
   HX - HEAT INDEX
  VSB - VISIBILITY



USA.gov is the U.S. government's official web portal to all federal, state and local government web resources and services.